Location: Arroyo de Valdeoliva
(40.1604°N, 4.9878°W)
Time: 16:35:31
(UTC+00:00)

UNK - Visible Passes

Search period start: 14 March 2026 00:00
Search period end: 24 March 2026 00:00
Orbit: 655 x 672 km, 98.4° (Epoch: 14 March)

Date Brightness Start Highest point End Pass type
(mag) Time Alt. Az. Time Alt. Az. Time Alt. Az.
14 Mar 4.2 04:38:35 10° SSE 04:43:03 61° ENE 04:47:35 10° N visible
15 Mar 6.8 03:34:58 10° E 03:37:12 14° ENE 03:39:25 10° NNE visible
15 Mar 3.6 05:09:04 10° S 05:13:34 63° WSW 05:18:07 10° NNW visible
16 Mar 5.8 04:03:38 10° ESE 04:07:24 26° ENE 04:11:12 10° NNE visible
16 Mar 4.5 05:40:13 10° SSW 05:44:11 30° W 05:48:13 10° NW visible
16 Mar 6.8 19:12:04 10° NNW 19:14:37 15° WNW 19:17:08 10° W visible
17 Mar 4.5 04:33:19 10° SSE 04:37:45 53° ENE 04:42:13 10° N visible
18 Mar 6.9 03:30:16 10° E 03:31:56 12° ENE 03:33:37 10° NE visible
18 Mar 3.6 05:03:41 10° S 05:08:13 73° WSW 05:12:49 10° NNW visible
19 Mar 6.1 03:58:32 10° ESE 04:02:07 23° ENE 04:05:43 10° NNE visible
19 Mar 4.3 05:34:41 10° SSW 05:38:49 34° W 05:43:00 10° NNW visible
19 Mar 6.7 19:06:26 10° NNW 19:09:20 17° WNW 19:12:13 10° WSW visible
20 Mar 4.8 04:28:05 10° SE 04:32:26 46° ENE 04:36:49 10° N visible
21 Mar 7.1 03:25:58 10° ENE 03:26:40 10° ENE 03:27:23 10° NE visible
21 Mar 3.6 04:58:18 10° SSE 05:02:52 84° WSW 05:07:30 10° NNW visible
22 Mar 6.3 03:53:28 10° ESE 03:56:49 20° ENE 04:00:11 10° NNE visible
22 Mar 4.1 05:29:11 10° SSW 05:33:27 39° W 05:37:46 10° NNW visible
22 Mar 6.7 19:00:51 10° NNW 19:04:03 19° WNW 19:07:13 10° WSW visible
23 Mar 5.1 04:22:50 10° SE 04:27:06 40° ENE 04:31:24 10° N visible
